Wind_Speed
19 20 20 20 21 21 21 22 22 21 19 17 16 15 13 12 10 9 8 9 7 6 5 4 5 5 6 7 8 9 10 11 12 13 12 12 12 12 12 11 11 10 10 10 10 9 10 9 9
19 20 19 20 21 21 22 23 23 22 20 18 18 17 15 13 11 10 9 9 7 7 6 6 6 7 7 8 9 10 11 12 12 13 12 12 12 12 11 10 10 10 10 9 9 10 9 9 8
19 19 20 21 21 21 22 23 23 22 21 20 19 18 16 13 12 11 9 9 8 7 7 7 7 7 8 9 10 11 12 13 13 13 12 12 12 12 11 10 11 10 10 9 9 9 9 9 8
18 19 20 20 21 21 21 22 22 22 22 21 20 18 16 14 12 11 10 9 8 8 8 8 7 7 8 9 10 12 13 13 12 12 12 12 12 11 11 11 11 10 10 10 9 8 9 8 7
17 18 20 20 20 21 21 22 22 23 22 21 20 19 17 14 13 12 11 9 9 9 9 9 9 8 9 10 10 11 12 12 12 11 11 11 11 10 10 10 10 9 9 9 9 8 8 8 7
15 16 18 20 20 21 21 22 22 22 21 21 20 19 18 16 14 13 12 10 10 10 10 9 9 9 10 11 11 11 11 11 12 11 11 11 10 10 9 10 9 10 9 9 9 7 7 7 7
14 15 17 19 20 20 21 22 22 22 21 20 20 20 18 17 15 14 13 11 11 11 10 9 10 10 11 11 11 11 11 11 12 12 12 11 10 10 9 9 9 10 9 9 8 7 7 6 6
13 14 15 17 19 19 20 21 21 20 20 19 19 19 19 17 15 14 14 13 12 12 11 10 11 11 11 12 11 11 11 11 11 11 12 11 11 10 9 10 9 9 9 9 8 7 7 6 6
12 12 13 15 17 18 19 20 20 20 19 19 19 18 18 18 16 15 14 14 13 13 12 10 11 11 11 11 10 10 10 11 11 11 11 11 11 10 10 10 9 9 8 8 8 7 6 6 6
10 11 11 13 15 16 17 18 19 19 18 18 18 17 17 17 16 15 14 14 13 13 12 12 12 11 12 11 10 9 9 10 10 10 9 10 9 10 9 9 9 9 8 8 8 7 6 5 5
6 8 9 10 12 14 16 17 18 19 19 17 16 16 16 16 15 14 14 13 13 13 13 12 12 11 11 11 10 8 9 10 10 10 9 9 9 9 8 9 8 9 8 8 7 7 6 6 6
4 5 6 8 10 12 14 16 17 18 18 17 16 15 14 14 14 14 12 13 13 13 12 12 11 12 11 11 10 10 10 10 10 9 9 9 9 8 8 8 8 8 7 7 7 7 6 7 7
2 3 4 6 7 9 11 13 15 16 16 16 15 14 13 14 14 13 12 12 12 12 11 11 11 11 11 11 11 11 10 10 10 9 9 9 9 8 8 8 8 8 7 6 6 6 5 6 7
3 1 1 3 4 6 8 11 12 14 14 15 14 14 13 13 13 13 12 11 11 11 11 11 11 11 10 10 10 10 10 10 10 9 8 8 8 8 7 8 8 7 6 5 6 5 5 6 7
5 2 1 0 1 3 6 9 10 10 11 12 12 13 12 12 12 12 11 11 11 11 11 11 10 11 10 9 9 10 9 9 9 8 8 8 8 7 7 7 7 5 5 5 6 5 4 4 6
8 6 4 2 1 1 4 7 7 8 9 10 10 11 11 11 11 11 10 10 10 10 11 11 10 10 9 9 8 8 8 8 7 7 7 7 6 6 5 6 5 5 5 5 5 4 4 5 5
11 9 6 5 4 3 1 4 5 7 8 8 9 9 9 9 10 10 10 10 9 9 9 9 9 9 9 8 7 6 6 6 6 6 6 6 6 5 4 4 4 4 4 5 5 4 5 5 5
14 12 9 8 8 7 4 1 3 5 6 7 7 7 7 7 8 8 8 8 8 7 6 7 8 7 7 7 6 6 5 5 5 6 5 5 5 5 4 3 3 3 4 4 4 4 5 5 5
17 14 12 11 11 10 8 5 4 4 6 6 6 6 6 6 6 6 6 6 7 6 4 5 5 5 5 5 5 4 4 4 4 4 4 4 4 4 4 4 3 3 4 4 4 5 5 6 6
18 17 15 14 14 14 12 9 7 6 6 6 6 5 4 4 5 6 6 5 5 5 4 3 3 3 3 3 3 3 3 4 4 3 3 3 3 4 4 4 4 4 4 5 5 6 7 7 7
19 18 17 17 17 16 15 12 10 9 7 7 7 6 5 5 5 6 5 5 4 5 4 3 2 2 1 1 1 1 1 3 3 2 2 3 4 4 4 4 4 5 5 6 6 7 7 8 9
20 19 18 19 19 19 18 16 12 11 10 9 9 9 8 8 7 7 6 5 5 6 5 4 3 2 2 1 1 1 2 2 2 3 3 4 4 4 5 5 5 6 7 7 8 8 8 9 9
21 22 21 21 21 21 19 18 13 12 12 10 10 10 10 9 9 8 7 7 7 7 6 6 4 4 4 4 3 3 4 4 4 4 4 5 6 6 7 7 8 8 8 9 9 10 10 10 11
23 24 24 23 23 22 20 20 17 14 14 13 12 12 12 11 9 8 7 7 8 8 7 7 6 5 5 5 5 5 6 5 5 5 6 7 7 8 8 9 9 9 10 11 11 11 11 11 12
24 25 25 25 25 23 21 22 20 17 17 15 14 13 13 11 10 9 8 8 9 9 9 9 8 7 7 6 7 7 7 7 7 7 8 8 8 9 10 10 10 11 12 13 13 13 13 13 13
25 25 26 27 26 24 24 24 22 20 20 18 16 15 14 13 11 10 10 10 10 10 11 10 9 9 10 9 9 9 9 9 9 9 8 9 10 10 11 11 11 12 13 13 14 14 15 15 15
26 26 26 28 28 27 26 24 22 22 22 20 18 17 16 15 13 12 11 10 11 12 12 12 12 12 11 11 12 11 11 11 11 11 11 10 11 12 13 14 14 14 14 14 14 15 15 16 17
26 26 28 30 30 29 27 25 23 22 23 22 20 19 17 16 14 13 14 13 13 13 13 13 14 13 13 14 14 13 12 12 12 13 14 14 15 15 15 16 16 16 16 16 17 17 18 18 19
28 28 29 30 31 31 30 27 23 23 23 23 21 19 19 18 16 16 16 16 15 14 14 14 15 15 15 15 16 16 15 14 14 15 15 16 17 17 17 17 18 18 18 18 19 20 20 20 21
30 30 30 31 31 32 32 29 25 24 23 24 24 22 21 19 18 17 18 18 18 17 17 18 17 17 16 16 17 18 17 17 17 17 17 18 18 19 19 18 19 19 19 20 20 21 21 21 21
Wind_Direction
65 61 62 64 64 61 59 57 55 52 49 48 48 47 48 51 51 53 55 58 68 73 94 116 130 138 147 152 151 143 140 146 149 150 152 152 151 151 154 155 152 152 157 157 154 152 153 151 155
61 62 61 64 64 62 60 57 54 50 47 47 48 48 48 50 56 61 62 62 68 77 94 118 124 132 140 145 143 139 138 142 147 147 150 152 152 151 156 160 162 159 159 156 154 154 152 149 150
61 63 63 66 64 63 60 57 54 51 47 46 47 47 47 49 57 61 64 66 67 81 97 115 125 125 133 140 140 137 138 141 144 145 148 151 151 152 157 163 162 162 162 155 154 157 154 150 147
63 65 63 65 64 63 61 58 55 51 47 46 46 47 45 46 54 60 65 73 75 85 96 109 113 119 127 133 138 136 141 143 147 151 151 153 155 160 161 164 163 165 165 161 159 158 156 154 150
63 65 66 65 64 62 60 58 55 50 46 44 45 47 46 47 53 57 63 73 79 84 92 100 106 116 126 127 131 138 143 148 150 156 157 157 157 161 164 169 169 170 170 167 168 164 165 162 154
65 67 68 65 63 61 59 56 53 49 46 43 43 47 47 48 52 56 59 70 79 79 80 97 106 116 123 128 134 137 142 148 151 153 154 155 155 157 164 169 170 169 170 167 169 173 173 169 165
64 67 67 62 60 59 56 54 51 49 46 43 43 45 46 49 51 54 58 64 69 74 78 91 106 112 116 124 130 134 138 142 144 149 152 154 155 158 160 163 171 173 170 169 173 176 178 179 179
66 69 63 58 57 56 55 53 49 47 45 45 45 44 45 48 49 53 57 62 66 72 76 86 99 105 111 117 125 135 140 142 143 148 153 155 156 159 160 162 167 172 174 175 180 182 189 189 189
71 71 64 60 57 54 53 51 48 46 47 46 45 45 46 47 47 51 56 60 63 67 74 82 95 105 111 115 121 132 138 142 147 151 154 156 158 162 161 162 167 167 175 182 187 191 192 192 195
74 71 66 64 60 56 53 52 47 45 45 44 44 45 46 46 45 48 53 59 64 67 72 78 86 99 107 110 113 123 136 143 147 148 152 151 156 164 167 168 170 175 182 185 186 190 196 198 201
75 70 69 64 61 57 55 53 48 45 45 43 42 44 46 45 44 45 50 56 62 66 70 75 82 95 102 104 105 114 134 142 143 146 148 149 155 163 167 173 179 185 193 191 189 195 199 205 204
87 70 65 63 59 55 55 53 49 46 43 41 40 42 45 43 41 41 47 54 60 65 68 71 78 90 95 96 99 106 123 137 140 143 146 153 157 163 169 177 184 190 190 189 197 205 205 208 204
132 76 63 61 59 52 51 50 47 43 39 37 36 39 41 43 40 39 44 52 59 65 70 72 78 84 90 91 95 106 118 129 137 139 144 150 157 164 172 182 179 185 191 190 195 209 213 210 204
195 131 71 56 51 52 51 47 44 41 36 33 34 36 39 41 41 41 43 48 54 62 71 76 79 83 87 93 97 105 113 125 132 139 147 150 154 162 173 177 183 187 193 194 200 211 212 210 211
227 205 182 7 37 42 46 49 44 37 32 30 31 31 34 36 38 40 42 48 52 57 64 73 78 83 87 90 92 104 112 121 128 139 149 152 154 159 168 178 185 187 189 197 204 203 202 206 207
236 227 217 226 229 28 46 48 38 27 21 23 22 26 30 32 34 38 40 44 50 54 58 65 73 82 87 90 94 103 109 114 123 131 141 153 159 168 175 182 183 185 190 195 201 207 214 219 213
231 228 233 227 240 252 351 46 31 13 9 10 12 21 24 30 31 35 37 40 45 53 58 62 69 79 83 84 88 98 108 115 124 132 139 146 155 162 165 172 180 187 196 203 204 208 219 226 224
230 231 236 234 247 255 262 305 360 4 357 360 4 11 20 25 29 31 32 32 33 43 54 61 63 72 77 81 85 94 104 114 121 129 138 151 161 167 175 186 192 198 204 208 211 219 229 238 244
230 231 234 237 249 258 264 278 295 321 336 340 350 359 13 18 21 21 18 18 14 21 34 53 55 59 66 76 88 98 108 119 127 131 140 151 169 182 193 204 211 215 221 221 224 232 241 249 254
231 231 234 242 246 254 262 270 278 295 311 315 323 334 340 351 359 9 10 4 1 1 2 33 43 39 48 66 72 78 111 131 139 147 161 176 188 201 206 212 220 228 228 236 241 244 247 252 257
235 235 239 244 245 253 259 263 268 275 286 294 300 309 309 313 322 330 341 340 339 336 344 355 5 354 1 55 61 47 116 160 170 182 191 203 210 215 216 221 230 240 244 248 252 256 253 257 262
236 237 240 243 247 251 257 262 262 269 276 284 291 293 295 301 303 311 315 310 309 309 317 325 322 304 285 288 274 262 260 229 224 224 229 230 228 231 239 243 242 248 254 258 261 263 262 264 264
236 238 243 246 249 252 256 263 265 268 275 281 286 291 289 295 296 300 302 295 291 293 298 304 302 292 271 269 275 272 270 261 247 249 249 246 240 240 245 251 251 256 262 267 269 270 268 267 269
237 240 245 248 250 253 256 262 266 269 271 275 280 288 292 291 285 288 289 290 288 288 289 291 292 279 260 258 262 268 266 260 255 262 259 251 247 248 253 256 261 261 264 269 270 268 267 270 268
238 241 245 248 251 257 259 260 264 267 268 270 276 281 290 287 278 277 279 284 288 291 290 285 283 282 267 263 265 265 268 267 263 264 264 261 259 258 259 259 264 261 265 268 268 267 269 272 271
242 243 247 252 255 259 261 263 264 265 265 268 271 275 281 281 277 277 272 277 281 283 283 278 274 276 270 269 272 264 268 268 265 265 269 269 265 264 262 263 265 264 265 268 267 266 267 271 272
244 244 247 253 257 260 261 265 266 263 262 265 267 270 275 276 276 277 275 277 277 277 277 275 269 273 271 267 273 268 264 264 263 264 267 269 269 264 262 262 264 268 270 271 271 268 269 271 271
244 246 248 251 256 260 263 265 268 263 262 265 264 266 271 275 275 274 276 278 280 279 273 273 266 269 272 271 272 269 263 264 264 265 264 265 267 267 266 264 266 269 270 271 273 274 271 271 270
244 245 250 254 257 261 264 266 268 264 262 260 260 262 265 269 271 271 272 275 276 277 274 275 273 275 279 279 276 270 264 264 266 268 268 267 269 271 272 272 270 270 271 272 274 276 273 271 270
246 248 251 254 258 261 264 266 267 266 264 262 261 261 259 261 264 268 270 271 272 274 275 276 276 276 280 281 282 274 265 264 265 268 269 268 271 274 272 274 276 273 273 275 276 277 276 274 271
Height
5874 5873 5872 5871 5869 5867 5865 5864 5862 5861 5860 5859 5857 5856 5855 5855 5855 5856 5854 5851 5851 5851 5850 5850 5850 5851 5852 5853 5853 5854 5856 5858 5860 5862 5864 5866 5869 5871 5872 5875 5877 5878 5880 5882 5883 5885 5886 5888 5889
5876 5876 5875 5874 5871 5869 5868 5866 5864 5863 5863 5861 5859 5858 5857 5856 5855 5854 5853 5853 5852 5852 5851 5851 5852 5852 5852 5853 5854 5855 5857 5859 5861 5863 5865 5868 5870 5872 5874 5876 5878 5879 5881 5883 5884 5886 5887 5889 5890
5879 5878 5878 5876 5874 5872 5871 5868 5867 5866 5865 5863 5861 5860 5859 5858 5856 5855 5855 5854 5854 5853 5852 5853 5853 5853 5854 5854 5856 5857 5858 5860 5862 5864 5867 5869 5871 5873 5875 5877 5878 5880 5882 5884 5886 5887 5888 5890 5891
5882 5882 5881 5879 5876 5875 5873 5871 5869 5868 5867 5865 5864 5862 5860 5860 5858 5857 5856 5855 5855 5854 5853 5853 5854 5854 5855 5856 5857 5858 5860 5862 5864 5866 5868 5870 5872 5874 5876 5877 5879 5881 5883 5885 5887 5888 5890 5891 5892
5884 5884 5883 5880 5879 5877 5876 5874 5872 5870 5869 5868 5866 5864 5863 5862 5860 5859 5858 5857 5856 5855 5855 5855 5855 5855 5856 5857 5858 5860 5861 5863 5865 5867 5869 5871 5873 5875 5877 5879 5880 5882 5884 5886 5888 5889 5890 5892 5893
5887 5886 5885 5883 5881 5879 5878 5876 5874 5872 5871 5870 5869 5867 5865 5864 5863 5862 5860 5859 5858 5857 5856 5856 5856 5856 5857 5858 5859 5861 5863 5864 5866 5868 5870 5872 5874 5876 5878 5880 5881 5883 5885 5886 5888 5890 5891 5892 5893
5888 5887 5886 5885 5883 5882 5880 5878 5876 5875 5874 5873 5871 5869 5868 5866 5865 5864 5863 5861 5860 5859 5858 5858 5858 5858 5859 5860 5861 5862 5864 5865 5867 5869 5871 5873 5875 5876 5878 5880 5882 5883 5885 5887 5889 5890 5892 5893 5894
5889 5889 5887 5886 5885 5884 5883 5881 5879 5878 5877 5876 5874 5872 5870 5869 5868 5866 5865 5864 5862 5861 5860 5860 5859 5860 5860 5861 5862 5864 5865 5867 5868 5870 5872 5873 5875 5877 5879 5881 5883 5884 5886 5888 5889 5891 5892 5893 5894
5891 5891 5889 5888 5887 5887 5885 5884 5882 5881 5880 5878 5877 5875 5874 5872 5871 5869 5868 5866 5865 5864 5863 5862 5861 5862 5862 5863 5864 5865 5866 5868 5869 5871 5873 5874 5876 5878 5880 5882 5883 5885 5887 5888 5889 5891 5892 5893 5894
5893 5892 5891 5891 5890 5889 5887 5886 5885 5883 5882 5881 5879 5878 5876 5875 5874 5872 5870 5869 5867 5866 5865 5864 5864 5864 5864 5864 5865 5865 5866 5868 5870 5872 5873 5875 5877 5879 5880 5882 5883 5885 5887 5888 5889 5891 5892 5893 5894
5894 5894 5893 5892 5891 5890 5889 5888 5887 5885 5884 5883 5882 5880 5879 5877 5876 5875 5873 5871 5870 5869 5867 5866 5866 5866 5866 5866 5866 5865 5866 5868 5871 5873 5875 5876 5878 5879 5881 5882 5883 5885 5887 5888 5890 5891 5892 5893 5894
5895 5895 5894 5893 5892 5892 5891 5890 5889 5888 5886 5885 5884 5883 5881 5880 5879 5877 5876 5874 5872 5871 5870 5869 5868 5868 5868 5868 5867 5866 5866 5869 5872 5874 5876 5877 5879 5880 5881 5882 5883 5885 5887 5888 5890 5891 5892 5893 5894
5895 5896 5895 5894 5894 5893 5893 5892 5891 5890 5888 5887 5886 5885 5883 5882 5881 5879 5878 5876 5875 5873 5872 5871 5870 5870 5870 5870 5869 5869 5870 5872 5873 5875 5876 5877 5879 5880 5881 5883 5883 5885 5887 5888 5890 5890 5891 5892 5893
5895 5896 5896 5895 5895 5894 5894 5893 5893 5892 5891 5889 5888 5887 5885 5884 5883 5881 5880 5878 5877 5876 5874 5873 5873 5872 5872 5872 5871 5872 5873 5873 5875 5876 5877 5878 5879 5881 5882 5883 5884 5886 5887 5888 5889 5890 5891 5892 5893
5895 5896 5896 5896 5895 5895 5895 5894 5894 5893 5892 5891 5890 5889 5887 5886 5885 5883 5882 5880 5879 5878 5877 5876 5875 5874 5874 5874 5874 5874 5874 5875 5876 5877 5878 5879 5880 5881 5882 5883 5885 5886 5887 5888 5889 5890 5891 5892 5893
5894 5895 5896 5896 5895 5895 5896 5895 5895 5894 5893 5892 5891 5890 5889 5887 5886 5884 5883 5882 5881 5880 5878 5878 5877 5876 5876 5876 5876 5876 5876 5877 5877 5878 5879 5880 5881 5882 5883 5884 5885 5886 5887 5888 5889 5890 5890 5891 5892
5893 5894 5895 5895 5895 5894 5895 5895 5895 5894 5894 5893 5892 5891 5889 5888 5887 5886 5884 5883 5882 5881 5880 5879 5879 5878 5878 5878 5878 5878 5878 5878 5879 5879 5880 5881 5882 5882 5883 5884 5884 5885 5886 5887 5888 5889 5890 5891 5891
5891 5892 5893 5894 5893 5893 5894 5894 5894 5894 5894 5893 5892 5891 5890 5889 5888 5887 5886 5885 5884 5883 5882 5881 5880 5880 5879 5879 5879 5879 5879 5880 5880 5880 5881 5881 5882 5883 5884 5884 5885 5885 5886 5887 5888 5889 5889 5890 5891
5889 5891 5892 5893 5892 5892 5893 5893 5893 5893 5893 5893 5893 5892 5891 5890 5889 5888 5886 5886 5885 5884 5883 5882 5882 5881 5881 5880 5880 5880 5880 5881 5881 5881 5882 5882 5883 5883 5884 5884 5885 5885 5886 5886 5887 5888 5889 5889 5890
5886 5888 5890 5890 5890 5890 5891 5891 5892 5892 5892 5892 5892 5892 5891 5890 5889 5888 5887 5886 5885 5884 5884 5883 5882 5882 5882 5881 5881 5880 5880 5881 5881 5882 5882 5883 5883 5883 5884 5884 5885 5885 5885 5886 5886 5887 5887 5888 5889
5884 5886 5887 5887 5887 5888 5889 5889 5890 5891 5891 5891 5890 5890 5890 5890 5889 5888 5887 5886 5886 5885 5884 5883 5883 5882 5882 5881 5882 5881 5881 5881 5882 5882 5882 5883 5883 5883 5883 5884 5884 5885 5885 5885 5886 5886 5886 5887 5887
5881 5883 5883 5884 5884 5885 5886 5886 5888 5888 5888 5889 5889 5889 5889 5889 5888 5887 5887 5886 5885 5884 5883 5883 5882 5882 5882 5882 5881 5881 5881 5881 5881 5881 5882 5882 5882 5882 5883 5883 5883 5884 5884 5884 5884 5884 5884 5885 5885
5877 5879 5879 5880 5880 5881 5882 5883 5885 5885 5886 5886 5887 5887 5887 5887 5886 5886 5885 5885 5884 5883 5883 5882 5881 5881 5880 5880 5880 5880 5881 5881 5881 5881 5881 5881 5881 5881 5882 5882 5882 5882 5882 5882 5882 5882 5882 5883 5883
5873 5874 5875 5876 5876 5878 5879 5880 5881 5882 5883 5883 5884 5884 5884 5884 5884 5884 5883 5883 5882 5882 5881 5880 5880 5879 5879 5879 5878 5879 5880 5879 5879 5879 5879 5879 5879 5879 5880 5880 5880 5880 5881 5881 5880 5880 5880 5880 5880
5869 5870 5871 5871 5872 5874 5875 5875 5877 5879 5879 5880 5880 5881 5881 5881 5881 5881 5881 5881 5880 5880 5879 5879 5878 5878 5877 5877 5877 5877 5878 5878 5878 5877 5877 5877 5877 5877 5877 5878 5878 5878 5878 5878 5878 5878 5878 5878 5877
5864 5866 5867 5868 5868 5870 5870 5870 5874 5875 5875 5876 5877 5877 5878 5878 5878 5878 5878 5877 5877 5877 5876 5876 5876 5876 5875 5875 5875 5875 5875 5876 5875 5875 5875 5875 5875 5875 5875 5875 5875 5875 5875 5875 5875 5875 5874 5874 5874
5859 5860 5862 5863 5863 5863 5864 5866 5868 5870 5870 5871 5873 5873 5874 5874 5874 5874 5874 5873 5873 5873 5873 5873 5873 5872 5872 5872 5872 5872 5872 5872 5872 5872 5872 5872 5872 5872 5872 5872 5872 5871 5871 5871 5871 5871 5870 5870 5870
5854 5855 5856 5856 5857 5857 5859 5861 5863 5864 5865 5867 5868 5869 5869 5870 5870 5870 5870 5870 5869 5869 5869 5869 5869 5869 5869 5868 5868 5868 5868 5868 5868 5869 5869 5869 5869 5868 5868 5867 5868 5867 5867 5867 5867 5866 5866 5866 5866
5847 5849 5849 5850 5851 5852 5852 5857 5858 5858 5859 5861 5862 5863 5864 5865 5865 5865 5866 5865 5865 5865 5865 5865 5865 5865 5865 5865 5864 5864 5864 5864 5864 5864 5864 5864 5864 5864 5863 5863 5863 5863 5862 5862 5862 5861 5861 5861 5861
5840 5841 5843 5844 5844 5845 5846 5851 5852 5852 5853 5854 5856 5857 5858 5859 5859 5860 5861 5861 5861 5861 5860 5860 5860 5860 5860 5860 5859 5859 5859 5859 5859 5859 5859 5859 5859 5859 5858 5858 5858 5858 5857 5857 5856 5856 5855 5855 5855